Weather in Augusta

United States     33°28′27″N   81°57′48″W
temp.,
°C
wind,
m/s
gust,
m/s
humid.,
%
clouds,
%
prec.,
mm/h
press.,
hPa
HPBL,
m
18 may, tue
tue1823:00+22sse495489 0.0 1024526
02:00+18se277356 0.0 1024269
05:00+17ese248548 0.0 1024148
08:00+19ese247999 0.0 1026249
11:00+25e455289 0.0 10261518
14:00+27e5643100 0.3 10252207
17:00+25ese3646100 0.0 10241423
20:00+23ese2758100 0.0 1024434
19 may, wed
wed1923:00+20ese386499 0.0 1026398
02:00+18ese2772100 0.0 1026285
05:00+17ene2874100 0.0 1025264
08:00+18e387795 0.0 1027355
11:00+24e465575 0.0 10271422
14:00+25e4552100 0.1 10261412
17:00+25ese465595 0.1 10251290
20:00+22se3765100 0.6 1026626
20 may, thu
thu2023:00+20se397052 0.0 1026512
02:00+17ese277755 0.0 1027254
05:00+16e238618 0.0 1027100
08:00+18e247414 0.0 1029212
11:00+24e46425 0.0 10291390
14:00+28e453026 0.0 10271941
17:00+29e45290 0.0 10262141
20:00+24ene36461 0.0 1026288
21 may, fri
fri2123:00+20sse3755100 0.0 1028284
02:00+18s127065 0.0 102875
05:00+17nne00755 0.0 102812
08:00+19nne236432 0.0 1030190
11:00+26ene243888 0.0 10301013
14:00+30ene343236 0.0 10282187
17:00+30ene343180 0.0 10262527
20:00+27e224281 0.0 102642
22 may, sat
sat2223:00+23se475563 0.0 1027395
02:00+19sse367083 0.0 1027239
05:00+18s127225 0.0 102774
08:00+20nnw006384 0.0 1028194
11:00+28w114184 0.0 1027951
14:00+32ene0232100 0.0 10241968
17:00+32ene123173 0.0 10212630
20:00+28ssw2343100 0.0 1021369